Location: Newark
(9.4667°S, 159.8167°E)
Time: 18:55:24
(UTC+00:00)

Vanguard 1 - Pass Details

Date: 16 November 2019
Orbit: 652 x 3832 km, 34.3° (Epoch: 09 December)

Event Time Altitude Azimuth Distance (km) Brightness Sun altitude
Rises 12:04:40 0° 271° (W) 5,047 13.9 -58.1°
Reaches altitude 10° 12:07:46 10° 263° (W) 4,422 13.5 -58.4°
Maximum altitude 12:20:01 40° 196° (SSW) 3,744 12.9 -59.7°
Drops below altitude 10° 12:39:41 10° 132° (SE) 6,830 14.4 -61.1°
Sets 12:46:11 0° 125° (SE) 7,974 14.9 -61.4°
